[[{"header":{"parameterUnit":"m.s-1","parameterCategory":1,"la1":30.2991,"la2":30.254,"lo1":-89.0895,"lo2":-89.0444,"dy":0.0017,"dx":0.0017,"nx":28,"ny":28,"refTime":"2025-12-26T03:00:00:Z","depth":0,"parameterNumber":2,"parameterNumberName":"U-component_of_WINDS"},"data":[0,0,0,0,0,0,0,0,0,0,0,0,0,0,0,0,0,0,0,0,0,0,0,0,0,0,0,0,0,0,0,0,0,0,0,0,0,0,0,0,0,0,0,0,0,0,0,0,0,0,0,0,0,0,0,0,0,0,0.5071,0.5072,0,0.5193,0.5194,0.5196,0.5241,0.5241,0.524,0.524,0.5369,0.5372,0.5376,0,0,0,0,0,0,0,0,0,0,0,0,0,0.4881,0.4884,0.5071,0.5072,0.5074,0.5193,0.5194,0.5196,0.5241,0.524,0.524,0.524,0.5367,0.5372,0.5377,0,0,0,0,0,0,0,0,0,0,0,0,0,0.4979,0.4885,0.5071,0.5111,0.5115,0.5192,0.5194,0.5196,0.5241,0.524,0.524,0.5239,0.5366,0.5372,0.5377,0.5425,0,0,0.5395,0.5397,0,0,0,0,0,0,0,0,0.4973,0.4986,0.5103,0.5108,0.5113,0.5201,0.5175,0.5273,0.5241,0.5193,0.524,0.5239,0.5314,0.5324,0.5348,0.5431,0.5436,0.5395,0.5399,0.5401,0.5403,0,0,0,0,0,0,0,0.4967,0.4981,0.5119,0.5105,0.5111,0.5124,0.5137,0.5194,0.5256,0.5198,0.5201,0.5215,0.5316,0.5342,0.5351,0.5438,0.5395,0.54,0.5404,0.5406,0.5567,0.5568,0,0,0,0,0,0,0.4953,0.4975,0.5115,0.5123,0.504,0.5128,0.5142,0.5174,0.5255,0.5267,0.5215,0.5216,0.5333,0.5345,0.5356,0.5418,0.5401,0.5406,0.541,0.5566,0.5567,0.5568,0,0,0,0,0,0,0.4948,0.4965,0.511,0.505,0.507,0.5131,0.5166,0.5176,0.5202,0.5268,0.528,0.523,0.5333,0.5348,0.5407,0.5423,0.5409,0.5414,0.5565,0.5566,0.5567,0.554,0,0,0,0,0,0,0.4943,0.4963,0.4981,0.505,0.5073,0.5158,0.5167,0.5179,0.5212,0.5214,0.5285,0.5297,0.5334,0.5398,0.5413,0.543,0.5419,0.5564,0.5565,0.5567,0.554,0.5541,0.5541,0,0,0,0,0,0.4936,0.4969,0.4981,0.4998,0.5096,0.5159,0.5172,0.5213,0.5213,0.5232,0.5274,0.5294,0.5418,0.5404,0.5421,0.544,0.5563,0.5565,0.5567,0.554,0.5541,0.5541,0,0,0,0,0,0,0.4901,0.4979,0.4993,0.505,0.5097,0.5166,0.5192,0.5212,0.5261,0.5262,0.5312,0.5328,0.5383,0.5418,0.54,0.5491,0.5492,0.5497,0.5466,0.5467,0.5467,0.5458,0.5423,0,0,0,0,0,0.49,0.4943,0.5009,0.5053,0.5076,0.5129,0.5158,0.5185,0.5237,0.5258,0.5305,0.5356,0.5406,0.5438,0.5489,0.5545,0.5562,0.5567,0.5567,0.5567,0.5571,0.5605,0.5608,0.5574,0.5574,0.5574,0,0,0.4898,0.4946,0.497,0.5047,0.5087,0.5132,0.5146,0.5193,0.5228,0.5266,0.5324,0.536,0.542,0.5478,0.5506,0.5509,0.5584,0.557,0.5569,0.5574,0.5607,0.561,0.5613,0.5575,0.5575,0.5575,0,0,0.4918,0.4958,0.4999,0.5038,0.5098,0.5134,0.5143,0.521,0.5235,0.5294,0.5323,0.5366,0.5451,0.5493,0.5525,0.556,0.5581,0.5575,0.5578,0.561,0.5612,0.5615,0.5628,0.5632,0.5579,0.5579,0.5579,0,0.4909,0.4977,0.5017,0.5063,0.5096,0.5131,0.5174,0.5211,0.5284,0.5307,0.5308,0.5417,0.5459,0.5528,0.5536,0.5561,0.5575,0.5568,0.5608,0.5611,0.5615,0.5628,0.5633,0.5578,0.5578,0.5578,0.5579,0,0.4963,0.5009,0.5035,0.5104,0.514,0.5184,0.5233,0.5265,0.5288,0.5324,0.5384,0.5437,0.5498,0.5516,0.5541,0.5589,0.5588,0.5598,0.5601,0.5616,0.5629,0.5635,0.5577,0.5577,0.5577,0.5578,0,0,0.4965,0.5055,0.5064,0.5096,0.5164,0.5202,0.5248,0.5307,0.5333,0.5383,0.5423,0.5495,0.5504,0.5541,0.557,0.5598,0.5624,0.5605,0.5607,0.5607,0.5681,0.5673,0.5679,0.5638,0.5639,0.564,0.5676,0,0.4994,0.5076,0.5114,0.518,0.5224,0.5258,0.5298,0.5345,0.5379,0.5423,0.5462,0.5512,0.552,0.5543,0.5572,0.5614,0.5639,0.5612,0.5677,0.5679,0.5662,0.5686,0.5678,0.571,0.5682,0.5683,0.5683,0,0.504,0.5088,0.5157,0.5221,0.5241,0.5276,0.5333,0.5374,0.5428,0.5452,0.5492,0.552,0.5571,0.5569,0.564,0.5621,0.565,0.5675,0.5677,0.5686,0.5682,0.5696,0.5721,0.5726,0.5692,0.5691,0.5691,0,0.5035,0.5118,0.517,0.5196,0.5271,0.5295,0.5328,0.5382,0.5415,0.5465,0.5487,0.5543,0.5574,0.5617,0.566,0.5655,0.5728,0.5729,0.5749,0.5748,0.5764,0.5763,0.5795,0.5781,0.5781,0.5781,0.5781,0,0.5065,0.5106,0.5169,0.5201,0.5249,0.5293,0.5339,0.5375,0.5422,0.5463,0.5496,0.5534,0.5588,0.5633,0.5667,0.5721,0.5735,0.5756,0.5765,0.5753,0.5751,0.5774,0.5773,0.5782,0.5782,0.5782,0.5781,0,0.5068,0.5112,0.5171,0.5237,0.5254,0.5287,0.5344,0.5377,0.5413,0.5464,0.5479,0.5535,0.559,0.5637,0.5709,0.5732,0.5789,0.5799,0.577,0.5775,0.5793,0.579,0.5842,0.5851,0.5829,0.5829,0.583,0,0.5084,0.5117,0.5186,0.5215,0.5246,0.5293,0.5326,0.5371,0.5405,0.5469,0.5495,0.5552,0.5599,0.5685,0.5734,0.579,0.5802,0.5816,0.5811,0.5799,0.5803,0.5801,0.5805,0.5817,0.5817,0.5817,0.5817,0,0.5109,0.5129,0.5175,0.5229,0.5267,0.5312,0.5359,0.5381,0.5434,0.5471,0.5526,0.5563,0.5636,0.5693,0.5754,0.5789,0.5812,0.5818,0.5826,0.5815,0.5797,0.5808,0.5771,0.5817,0.5817,0.5817,0.5817,0.5817,0.512,0.5151,0.5204,0.5254,0.5293,0.5335,0.537,0.541,0.5456,0.5518,0.5542,0.5599,0.5654,0.5738,0.5773,0.5819,0.5823,0.5834,0.5837,0.5839,0.5838,0.5789,0.583,0.583,0.5831,0.5831,0.5831,0,0.5147,0.5182,0.5228,0.5291,0.5331,0.5348,0.54,0.5433,0.5482,0.553,0.5576,0.564,0.5695,0.5747,0.5805,0.5832,0.5844,0.5846,0.5845,0.5853,0.5831,0.5819,0.5835,0.5835,0.5835,0.5835,0.5835,0.5835,0.5165,0.5218,0.5244,0.5317,0.5353,0.5408,0.5436,0.5476,0.5514,0.5584,0.5629,0.5662,0.5713,0.5775,0.5826,0.584,0.586,0.5859,0.5876,0.5855,0.5854,0.5853,0.5842,0.5863,0.5863,0.5895,0.5895,0.5895]},{"header":{"parameterUnit":"m.s-1","parameterCategory":1,"la1":30.2991,"la2":30.254,"lo1":-89.0895,"lo2":-89.0444,"dy":0.0017,"dx":0.0017,"nx":28,"ny":28,"refTime":"2025-12-26T03:00:00:Z","depth":0,"parameterNumber":3,"parameterNumberName":"V-component_of_WINDS"},"data":[0,0,0,0,0,0,0,0,0,0,0,0,0,0,0,0,0,0,0,0,0,0,0,0,0,0,0,0,0,0,0,0,0,0,0,0,0,0,0,0,0,0,0,0,0,0,0,0,0,0,0,0,0,0,0,0,0,0,1.4957,1.4957,0,1.4938,1.4938,1.4938,1.4905,1.4905,1.4904,1.4904,1.4885,1.4885,1.4885,0,0,0,0,0,0,0,0,0,0,0,0,0,1.4965,1.4965,1.4957,1.4957,1.4957,1.4938,1.4938,1.4938,1.4906,1.4905,1.4904,1.4903,1.4885,1.4885,1.4885,0,0,0,0,0,0,0,0,0,0,0,0,0,1.4955,1.4965,1.4957,1.4938,1.4937,1.4938,1.4938,1.4938,1.4906,1.4905,1.4904,1.4903,1.4885,1.4885,1.4885,1.4903,0,0,1.4885,1.4885,0,0,0,0,0,0,0,0,1.4956,1.4955,1.4941,1.494,1.4938,1.4923,1.4934,1.4926,1.4906,1.4917,1.4904,1.4903,1.4898,1.4897,1.4896,1.4902,1.4902,1.4885,1.4885,1.4885,1.4885,0,0,0,0,0,0,0,1.4957,1.4956,1.495,1.4941,1.4939,1.4931,1.4928,1.4932,1.4913,1.4916,1.4914,1.4912,1.4897,1.4896,1.4895,1.4901,1.4885,1.4885,1.4885,1.4885,1.4922,1.4923,0,0,0,0,0,0,1.496,1.4956,1.495,1.4949,1.4945,1.4931,1.4929,1.4929,1.4913,1.491,1.4913,1.4911,1.4896,1.4895,1.4894,1.4915,1.4885,1.4885,1.4885,1.4921,1.4922,1.4923,0,0,0,0,0,0,1.496,1.496,1.4951,1.4952,1.495,1.4932,1.4933,1.4929,1.4927,1.491,1.4907,1.4915,1.4895,1.4894,1.4901,1.4914,1.4885,1.4885,1.492,1.4922,1.4923,1.4957,0,0,0,0,0,0,1.4961,1.496,1.4967,1.4953,1.495,1.4959,1.4933,1.4929,1.4928,1.4925,1.4911,1.4908,1.4894,1.4901,1.4901,1.4914,1.4885,1.4919,1.4921,1.4922,1.4955,1.496,1.4964,0,0,0,0,0,1.4961,1.4978,1.4968,1.4967,1.4959,1.496,1.4959,1.4942,1.4929,1.4936,1.4925,1.4909,1.4912,1.4902,1.4902,1.4915,1.4918,1.492,1.4922,1.4953,1.4959,1.4964,0,0,0,0,0,0,1.4995,1.4976,1.4964,1.4977,1.497,1.4954,1.4963,1.4949,1.4945,1.4943,1.4922,1.4919,1.4929,1.4922,1.4912,1.4931,1.4913,1.4915,1.4936,1.4941,1.4946,1.4948,1.4885,0,0,0,0,0,1.5004,1.5006,1.4989,1.5002,1.4999,1.4981,1.4981,1.4969,1.4961,1.4958,1.4947,1.494,1.494,1.494,1.4938,1.4953,1.495,1.4961,1.4966,1.4969,1.4972,1.4979,1.4984,1.493,1.493,1.493,0,0,1.5023,1.5012,1.5015,1.5008,1.5002,1.5004,1.4979,1.4983,1.4985,1.4958,1.4965,1.4957,1.4947,1.4958,1.4963,1.4953,1.4986,1.4972,1.4975,1.4976,1.4982,1.4987,1.4991,1.4932,1.4931,1.4931,0,0,1.5058,1.505,1.506,1.5054,1.5044,1.5032,1.5034,1.502,1.5013,1.5019,1.4999,1.5001,1.5,1.4994,1.4991,1.5023,1.5008,1.5023,1.5046,1.5054,1.5058,1.5062,1.5073,1.5078,1.5025,1.5025,1.5025,0,1.5083,1.5086,1.5067,1.5072,1.507,1.5045,1.5055,1.5049,1.5039,1.5038,1.5027,1.5025,1.5017,1.5027,1.5034,1.5032,1.5034,1.5025,1.5059,1.5062,1.5065,1.5076,1.5081,1.5027,1.5027,1.5027,1.5027,0,1.5117,1.512,1.5128,1.5119,1.5118,1.5125,1.5107,1.5107,1.5094,1.5083,1.5089,1.5079,1.5074,1.5075,1.5063,1.5083,1.5077,1.5062,1.5043,1.5073,1.5083,1.5087,1.503,1.5029,1.5029,1.5028,0,0,1.5176,1.5154,1.5158,1.5154,1.514,1.5142,1.5147,1.5143,1.5144,1.5137,1.5142,1.5141,1.5127,1.5124,1.511,1.5116,1.5143,1.5101,1.5101,1.511,1.5164,1.5176,1.5181,1.5132,1.5133,1.5133,1.5165,0,1.5209,1.5218,1.52,1.5214,1.5216,1.5192,1.5196,1.5189,1.5178,1.5178,1.5166,1.5166,1.5148,1.5145,1.515,1.5139,1.5153,1.5136,1.5136,1.5137,1.5141,1.5186,1.5199,1.5229,1.5169,1.5169,1.517,0,1.525,1.5245,1.5259,1.5244,1.5244,1.5249,1.5243,1.5243,1.5233,1.5225,1.522,1.5204,1.5208,1.5189,1.5194,1.5183,1.5182,1.5176,1.5176,1.5177,1.5156,1.5189,1.5239,1.5244,1.5176,1.5175,1.5175,0,1.5292,1.5289,1.5297,1.5293,1.5276,1.528,1.5272,1.5262,1.526,1.5254,1.5253,1.5248,1.5246,1.5242,1.5225,1.5212,1.5233,1.5212,1.5226,1.5227,1.5233,1.5233,1.5284,1.523,1.523,1.523,1.523,0,1.5332,1.5342,1.5315,1.532,1.533,1.5309,1.5319,1.5309,1.5299,1.5302,1.528,1.5282,1.5259,1.5259,1.5245,1.5252,1.5251,1.5244,1.5241,1.5247,1.5248,1.5247,1.5245,1.5231,1.5231,1.5231,1.5231,0,1.5382,1.5365,1.5372,1.5354,1.5349,1.5357,1.5342,1.5346,1.5333,1.5336,1.5336,1.5316,1.5315,1.5297,1.5291,1.5282,1.5295,1.5286,1.5298,1.5296,1.5312,1.5311,1.5366,1.5372,1.5313,1.5313,1.5314,0,1.541,1.5416,1.5399,1.5399,1.5393,1.5393,1.5391,1.537,1.5368,1.5357,1.5362,1.5358,1.5355,1.5354,1.5339,1.5334,1.5327,1.5346,1.5326,1.5332,1.5328,1.5328,1.5329,1.5351,1.5352,1.5352,1.5353,0,1.5461,1.5451,1.5449,1.5444,1.5442,1.5437,1.543,1.5431,1.5407,1.5407,1.5405,1.5402,1.5396,1.5394,1.5386,1.5378,1.5362,1.5359,1.5362,1.5369,1.5376,1.5373,1.5311,1.5358,1.5357,1.5357,1.5357,1.5357,1.5501,1.5506,1.5494,1.5492,1.5485,1.5479,1.5481,1.5468,1.5466,1.546,1.5447,1.5447,1.5436,1.5425,1.5418,1.5418,1.5408,1.5412,1.5414,1.5416,1.5419,1.5375,1.5416,1.5416,1.5416,1.5416,1.5415,0,1.5552,1.5543,1.5541,1.5532,1.553,1.5514,1.5505,1.5505,1.5506,1.5496,1.5493,1.549,1.5487,1.5471,1.5466,1.5469,1.5461,1.5468,1.5469,1.5467,1.5428,1.5426,1.5475,1.5475,1.5475,1.5475,1.5475,1.5475,1.5578,1.5585,1.5574,1.5577,1.5568,1.5568,1.5564,1.5559,1.5551,1.5549,1.5546,1.5536,1.5524,1.5517,1.5513,1.5509,1.5508,1.5518,1.5512,1.5476,1.547,1.5465,1.5463,1.5518,1.5518,1.5551,1.5551,1.5551]}]]